TimeBST,TemperatureF,Dew PointF,Humidity,Sea Level PressureIn,VisibilityMPH,Wind Direction,Wind SpeedMPH,Gust SpeedMPH,PrecipitationIn,Events,Conditions,WindDirDegrees,DateUTC
1:00 AM,51,49,92,29.93,5,ENE,10.4,,,,Haze,70,2012-10-25 00:00:00
3:50 AM,51.8,50.0,94,29.89,3.1,East,15.0,-,N/A,,Mostly Cloudy,100,2012-10-25 02:50:00
4:00 AM,52,51,93,29.91,3,East,13.8,,,,Mist,100,2012-10-25 03:00:00
4:20 AM,51.8,51.8,100,29.89,3.1,East,16.1,-,N/A,,Mostly Cloudy,100,2012-10-25 03:20:00
4:50 AM,51.8,50.0,94,29.89,1.6,East,10.4,-,N/A,,Mostly Cloudy,100,2012-10-25 03:50:00
5:20 AM,51.8,50.0,94,29.89,0.7,ESE,9.2,-,N/A,Fog,Mostly Cloudy,110,2012-10-25 04:20:00
5:50 AM,51.8,51.8,100,29.89,0.4,East,9.2,-,N/A,Fog,Fog,100,2012-10-25 04:50:00
6:20 AM,51.8,50.0,94,29.89,0.2,East,8.1,-,N/A,Fog,Fog,80,2012-10-25 05:20:00
6:50 AM,51.8,50.0,94,29.89,0.1,East,12.7,-,N/A,Fog,Fog,80,2012-10-25 05:50:00
7:00 AM,51,51,98,29.90,0,East,11.5,,,Fog,Partial Fog,80,2012-10-25 06:00:00
7:20 AM,51.8,50.0,94,29.89,0.1,East,11.5,-,N/A,Fog,Fog,90,2012-10-25 06:20:00
7:50 AM,50.0,50.0,100,29.89,0.1,East,11.5,-,N/A,Fog,Fog,80,2012-10-25 06:50:00
8:20 AM,50.0,50.0,100,29.89,0.1,East,8.1,-,N/A,Fog,Fog,90,2012-10-25 07:20:00
8:50 AM,50.0,50.0,100,29.89,0.1,East,15.0,-,N/A,Fog,Fog,80,2012-10-25 07:50:00
9:20 AM,51.8,51.8,100,29.89,0.1,East,13.8,-,N/A,Fog,Fog,80,2012-10-25 08:20:00
9:50 AM,51.8,51.8,100,29.89,0.5,East,16.1,-,N/A,Fog,Fog,80,2012-10-25 08:50:00
10:00 AM,51,51,99,29.89,0,East,11.5,,,Fog,Partial Fog,90,2012-10-25 09:00:00
10:20 AM,51.8,51.8,100,29.86,1.6,East,15.0,-,N/A,,Mostly Cloudy,90,2012-10-25 09:20:00
10:50 AM,51.8,51.8,100,29.86,1.6,East,11.5,-,N/A,,Mostly Cloudy,90,2012-10-25 09:50:00
11:20 AM,51.8,51.8,100,29.86,1.6,East,13.8,-,N/A,,Mostly Cloudy,100,2012-10-25 10:20:00
11:50 AM,51.8,51.8,100,29.86,1.6,East,13.8,-,N/A,,Mostly Cloudy,90,2012-10-25 10:50:00
12:20 PM,51.8,51.8,100,29.86,1.7,East,8.1,-,N/A,,Mostly Cloudy,90,2012-10-25 11:20:00
12:50 PM,51.8,51.8,100,29.86,1.4,ESE,11.5,-,N/A,,Mostly Cloudy,110,2012-10-25 11:50:00
1:00 PM,52,51,97,29.87,1,East,10.4,,,,Mist,100,2012-10-25 12:00:00
1:20 PM,51.8,51.8,100,29.86,0.4,East,11.5,-,N/A,Fog,Fog,90,2012-10-25 12:20:00
1:50 PM,51.8,51.8,100,29.83,0.2,East,11.5,-,N/A,Fog,Fog,100,2012-10-25 12:50:00
2:20 PM,51.8,51.8,100,29.83,0.4,East,12.7,-,N/A,Fog,Fog,100,2012-10-25 13:20:00
2:50 PM,51.8,51.8,100,29.83,0.6,East,12.7,-,N/A,Fog,Fog,100,2012-10-25 13:50:00
3:20 PM,51.8,51.8,100,29.83,0.4,East,10.4,-,N/A,Fog,Fog,80,2012-10-25 14:20:00
3:50 PM,51.8,51.8,100,29.80,0.4,East,13.8,-,N/A,Fog,Fog,90,2012-10-25 14:50:00
4:00 PM,52,52,98,29.83,0,East,12.7,,,Fog,Partial Fog,80,2012-10-25 15:00:00
4:20 PM,51.8,51.8,100,29.80,0.6,East,13.8,-,N/A,Fog,Fog,90,2012-10-25 15:20:00
4:50 PM,51.8,51.8,100,29.80,0.4,East,11.5,-,N/A,Fog,Fog,100,2012-10-25 15:50:00
5:20 PM,51.8,51.8,100,29.83,0.4,East,15.0,-,N/A,Fog,Fog,90,2012-10-25 16:20:00
5:50 PM,51.8,51.8,100,29.83,0.4,East,12.7,-,N/A,Fog,Fog,90,2012-10-25 16:50:00
6:20 PM,51.8,51.8,100,29.83,1.1,East,15.0,-,N/A,,Mostly Cloudy,100,2012-10-25 17:20:00
6:50 PM,51.8,51.8,100,29.80,1.9,East,12.7,-,N/A,,Mostly Cloudy,90,2012-10-25 17:50:00
7:00 PM,52,52,98,29.83,2,East,12.7,,,Fog,Light Fog,90,2012-10-25 18:00:00
7:20 PM,51.8,51.8,100,29.80,1.9,East,12.7,-,N/A,,Mostly Cloudy,100,2012-10-25 18:20:00
7:50 PM,53.6,51.8,94,29.80,1.9,East,11.5,-,N/A,,Mostly Cloudy,90,2012-10-25 18:50:00
8:20 PM,53.6,51.8,94,29.80,1.9,East,13.8,-,N/A,,Mostly Cloudy,80,2012-10-25 19:20:00
8:50 PM,53.6,53.6,100,29.80,1.6,East,17.3,-,N/A,,Mostly Cloudy,80,2012-10-25 19:50:00
9:20 PM,53.6,53.6,100,29.80,1.6,East,15.0,-,N/A,,Mostly Cloudy,80,2012-10-25 20:20:00
9:50 PM,55.4,53.6,94,29.80,1.6,East,19.6,-,N/A,,Mostly Cloudy,80,2012-10-25 20:50:00
10:00 PM,55,54,95,29.81,2,East,17.3,,,,Mist,80,2012-10-25 21:00:00
10:20 PM,55.4,55.4,100,29.80,1.6,East,21.9,-,N/A,,Mostly Cloudy,80,2012-10-25 21:20:00